Torna al catalogo

SL-14 R/B

AttivoPO
NORAD 21734·ROCKET BODY·🇷🇺 Russia

Lanciato Sep 28, 1991 da Plesetsk Cosmodrome

Loading…

Prossimi Passaggi (prossime 24 ore)

TLE

AggiornatoSource: Space-Track

Epoca: Sep 14, 2026, 15:01 UTC

1 21734U 91068G   26257.62575285  .00000000  00000-0 -66387-4 0  9998
2 21734  82.5829  33.4471 0108384 179.9719 190.5739 12.54257396601018

Traccia SL-14 R/B in tempo reale con AllMySat

Download on the App Store